This demonstration page uses our WeatherBlox Daily Observations layout. Learn more.

Left ArrowRight Arrow

53.62937, 11.41316

Hourly Observations for February 25, 2018

Temp ( °F °C ) Dew Point ( °F °C ) Humidity (%) Winds ( mph kmh ) Pressure ( in mb ) Visibility ( mi km ) Precip ( " mm )
6:50 am 06:50 Mostly Cloudy 21 -6 21 -6 100 100 W 2 4 30.53 1034 30 48 N/A
7:20 am 07:20 Mostly Cloudy 21 -6 21 -6 100 100 VRB 1 2 30.53 1034 30 48 N/A
7:50 am 07:50 Mostly Cloudy 23 -5 23 -5 100 100 VRB 1 2 30.53 1034 30 48 N/A
8:20 am 08:20 Mostly Cloudy 23 -5 23 -5 100 100 WSW 2 4 30.53 1034 30 48 N/A
8:50 am 08:50 Mostly Cloudy with Snow 25 -4 23 -5 93 93 VRB 2 4 30.53 1034 2 3 N/A
9:20 am 09:20 Mostly Cloudy with Light Snow 25 -4 23 -5 93 93 VRB 2 4 30.53 1034 1 2 N/A
9:50 am 09:50 Cloudy with Snow 25 -4 25 -4 100 100 W 3 6 30.53 1034 1 1 N/A
10:20 am 10:20 Cloudy with Light Snow 27 -3 27 -3 100 100 W 3 6 30.53 1034 1 1 N/A
10:50 am 10:50 Cloudy with Snow 27 -3 27 -3 100 100 SW 3 6 30.53 1034 1 1 N/A
11:20 am 11:20 Cloudy with Light Snow 27 -3 25 -4 93 93 VRB 2 4 30.53 1034 2 4 N/A
11:50 am 11:50 Cloudy with Light Rain/Snow 27 -3 25 -4 93 93 NE 9 15 30.53 1034 2 4 N/A
12:20 pm 12:20 Cloudy with Light Snow 27 -3 25 -4 93 93 NNE 10 17 30.50 1033 1 2 N/A
12:50 pm 12:50 Cloudy with Light Snow 27 -3 25 -4 93 93 NNE 10 17 30.50 1033 2 3 N/A
1:20 pm 13:20 Cloudy with Light Snow 27 -3 23 -5 86 86 NNE 14 22 30.50 1033 4 6 N/A
1:50 pm 13:50 Mostly Cloudy with Light Snow 27 -3 23 -5 86 86 NNE 13 20 30.50 1033 1 2 N/A
2:20 pm 14:20 Mostly Cloudy with Heavy Snow 27 -3 25 -4 93 93 NNE 10 17 30.50 1033 0 1 N/A
2:50 pm 14:50 Cloudy with Heavy Snow 25 -4 25 -4 100 100 N 12 19 30.50 1033 0 0 N/A
3:20 pm 15:20 Mostly Cloudy with Snow 25 -4 25 -4 100 100 ENE 9 15 30.50 1033 0 1 N/A
3:50 pm 15:50 Mostly Cloudy with Heavy Snow 27 -3 25 -4 93 93 ENE 8 13 30.50 1033 0 1 N/A
4:20 pm 16:20 Partly Cloudy 25 -4 25 -4 100 100 NE 10 17 30.48 1032 30 48 N/A
4:50 pm 16:50 Mostly Cloudy with Snow 27 -3 25 -4 93 93 ENE 9 15 30.48 1032 1 1 N/A
5:20 pm 17:20 Mostly Cloudy with Snow 27 -3 25 -4 93 93 ENE 9 15 30.50 1033 1 1 N/A
5:50 pm 17:50 Mostly Cloudy with Snow 25 -4 25 -4 100 100 NE 7 11 30.50 1033 1 1 N/A
6:20 pm 18:20 Partly Cloudy with Scattered Snow Showers 25 -4 25 -4 100 100 NE 9 15 30.50 1033 30 48 N/A

Powered by AerisWeather